Location: Unspecified
(42.2730°N, 83.7130°W)
Time: 14:16:30
(UTC+00:00)

Cosmos 1484 Rocket - Pass Details

Date: 14 December 2025
Orbit: 439 x 472 km, 97.6° (Epoch: 17 January)

Event Time Altitude Azimuth Distance (km) Brightness Sun altitude
Rises 22:35:33 0° 171° (S) 2,508 6.4 -6.1°
Reaches altitude 10° 22:37:36 10° 173° (S) 1,632 5.5 -6.4°
Maximum altitude 22:41:06 71° 258° (WSW) 501 2.8 -7.0°
Drops below altitude 10° 22:44:36 10° 343° (NNW) 1,631 5.2 -7.6°
Sets 22:46:39 0° 346° (NNW) 2,506 6.1 -8.0°
